SHT22B EGLL-EGJB

Flight info

Callsign SHT22B
Flight time 0h 33m
Altitude 19000
Route GASGU N866 SAM/N0370F180 N63 LELNA
Aircraft A320/M-SDE3FGHIRWY/LB1

Departure

Time 2026-04-23 11:04
Airport London Heathrow Airport (EGLL)

Arrival

Time 2026-04-23 11:37
Airport Guernsey Airport (EGJB)
Time Latitude Longitude Altitude Speed Heading
2026-04-23 10:44 51.46932 -0.48648 89 ft 0 kts 360°
2026-04-23 10:57 51.46924 -0.48648 85 ft 4 kts 357°
2026-04-23 10:57 51.46898 -0.48642 87 ft 4 kts 336°
2026-04-23 10:58 51.46879 -0.48618 87 ft 4 kts 287°
2026-04-23 10:58 51.46877 -0.48600 85 ft 1 kts 272°
2026-04-23 10:58 51.46877 -0.48599 85 ft 1 kts 272°
2026-04-23 11:00 51.46877 -0.48623 86 ft 4 kts 270°
2026-04-23 11:01 51.46876 -0.48679 85 ft 6 kts 269°
2026-04-23 11:01 51.46876 -0.48713 87 ft 1 kts 269°
2026-04-23 11:01 51.46872 -0.48738 85 ft 2 kts 233°
2026-04-23 11:01 51.46841 -0.48746 85 ft 6 kts 183°
2026-04-23 11:02 51.46790 -0.48750 85 ft 8 kts 182°
2026-04-23 11:02 51.46725 -0.48753 86 ft 11 kts 180°
2026-04-23 11:02 51.46652 -0.48753 87 ft 7 kts 180°
2026-04-23 11:02 51.46611 -0.48761 87 ft 11 kts 192°
2026-04-23 11:03 51.46521 -0.48769 85 ft 14 kts 155°
2026-04-23 11:03 51.46482 -0.48632 88 ft 15 kts 95°
2026-04-23 11:03 51.46479 -0.48334 88 ft 53 kts 90°
2026-04-23 11:03 51.46485 -0.47387 86 ft 113 kts 90°
2026-04-23 11:04 51.46491 -0.45885 153 ft 150 kts 87°
2026-04-23 11:04 51.46511 -0.44213 742 ft 151 kts 88°
2026-04-23 11:04 51.46526 -0.42522 1418 ft 151 kts 88°
2026-04-23 11:04 51.46245 -0.40832 1868 ft 169 kts 120°
2026-04-23 11:05 51.45521 -0.39237 2339 ft 187 kts 123°
2026-04-23 11:05 51.44705 -0.37462 2765 ft 209 kts 123°
2026-04-23 11:05 51.43817 -0.35468 3329 ft 231 kts 125°
2026-04-23 11:05 51.42596 -0.33681 4056 ft 246 kts 148°
2026-04-23 11:06 51.39132 -0.33065 5838 ft 268 kts 193°
2026-04-23 11:06 51.37480 -0.34521 6756 ft 277 kts 217°
2026-04-23 11:06 51.36057 -0.36650 7594 ft 282 kts 220°
2026-04-23 11:07 51.34600 -0.38803 8401 ft 287 kts 219°
2026-04-23 11:07 51.33114 -0.40973 9246 ft 292 kts 218°
2026-04-23 11:07 51.31607 -0.43202 10045 ft 299 kts 224°
2026-04-23 11:07 51.30389 -0.45935 10782 ft 307 kts 242°
2026-04-23 11:08 51.29672 -0.49159 11325 ft 322 kts 253°
2026-04-23 11:08 51.29029 -0.52717 11541 ft 345 kts 253°
2026-04-23 11:08 51.28349 -0.56521 11730 ft 366 kts 253°
2026-04-23 11:08 51.27628 -0.60478 12254 ft 375 kts 252°
2026-04-23 11:09 51.26869 -0.64488 12918 ft 379 kts 252°
2026-04-23 11:09 51.26088 -0.68525 13585 ft 383 kts 252°
2026-04-23 11:09 51.25277 -0.72659 14247 ft 387 kts 252°
2026-04-23 11:09 51.24474 -0.76725 14834 ft 391 kts 252°
2026-04-23 11:10 51.23651 -0.80884 15431 ft 394 kts 252°
2026-04-23 11:10 51.22819 -0.85080 16012 ft 398 kts 252°
2026-04-23 11:10 51.21982 -0.89296 16582 ft 401 kts 252°
2026-04-23 11:10 51.21090 -0.93531 17156 ft 404 kts 248°
2026-04-23 11:11 51.19817 -0.97534 17712 ft 407 kts 237°
2026-04-23 11:11 51.18152 -1.01184 18311 ft 409 kts 231°
2026-04-23 11:11 51.16397 -1.04773 18864 ft 412 kts 231°
2026-04-23 11:11 51.14631 -1.08388 19281 ft 415 kts 231°
2026-04-23 11:12 51.12855 -1.12022 19401 ft 418 kts 232°
2026-04-23 11:12 51.11652 -1.14481 19433 ft 429 kts 232°
2026-04-23 11:12 51.09769 -1.18279 19411 ft 445 kts 229°
2026-04-23 11:12 51.07580 -1.21799 19412 ft 449 kts 220°
2026-04-23 11:13 51.05073 -1.24771 19412 ft 450 kts 211°
2026-04-23 11:13 51.02440 -1.27461 19406 ft 450 kts 211°
2026-04-23 11:13 50.99803 -1.30147 19409 ft 450 kts 211°
2026-04-23 11:13 50.97166 -1.32829 19409 ft 450 kts 211°
2026-04-23 11:14 50.94472 -1.35350 19408 ft 449 kts 205°
2026-04-23 11:14 50.91681 -1.37582 19409 ft 449 kts 205°
2026-04-23 11:14 50.88890 -1.39813 19416 ft 449 kts 205°
2026-04-23 11:14 50.86135 -1.42016 19412 ft 449 kts 205°
2026-04-23 11:15 50.83351 -1.44238 19416 ft 448 kts 205°
2026-04-23 11:15 50.80559 -1.46462 19408 ft 448 kts 205°
2026-04-23 11:15 50.77778 -1.48672 19410 ft 448 kts 205°
2026-04-23 11:15 50.74989 -1.50882 19405 ft 448 kts 205°
2026-04-23 11:16 50.72204 -1.53084 19402 ft 448 kts 205°
2026-04-23 11:16 50.69421 -1.55284 19398 ft 448 kts 205°
2026-04-23 11:16 50.66628 -1.57492 19389 ft 448 kts 205°
2026-04-23 11:16 50.63845 -1.59688 19400 ft 448 kts 205°
2026-04-23 11:17 50.61060 -1.61882 19393 ft 448 kts 205°
2026-04-23 11:17 50.58272 -1.64081 19378 ft 449 kts 205°
2026-04-23 11:17 50.55476 -1.66280 19377 ft 449 kts 205°
2026-04-23 11:17 50.52681 -1.68473 19379 ft 449 kts 205°
2026-04-23 11:18 50.49887 -1.70664 19370 ft 450 kts 205°
2026-04-23 11:18 50.47084 -1.72861 19371 ft 450 kts 205°
2026-04-23 11:18 50.44281 -1.75054 19374 ft 450 kts 205°
2026-04-23 11:18 50.41482 -1.77240 19372 ft 450 kts 205°
2026-04-23 11:19 50.38677 -1.79428 19374 ft 450 kts 205°
2026-04-23 11:19 50.35873 -1.81617 19372 ft 450 kts 205°
2026-04-23 11:19 50.33071 -1.83803 19370 ft 451 kts 205°
2026-04-23 11:19 50.30264 -1.85986 19362 ft 450 kts 204°
2026-04-23 11:20 50.27458 -1.88163 19370 ft 450 kts 204°
2026-04-23 11:20 50.24654 -1.90336 19371 ft 450 kts 205°
2026-04-23 11:20 50.21851 -1.92503 19377 ft 449 kts 204°
2026-04-23 11:20 50.19050 -1.94662 19376 ft 449 kts 204°
2026-04-23 11:21 50.16241 -1.96822 19372 ft 449 kts 205°
2026-04-23 11:21 50.13485 -1.98941 19171 ft 434 kts 205°
2026-04-23 11:21 50.10819 -2.00998 18937 ft 422 kts 204°
2026-04-23 11:21 50.08210 -2.03010 18695 ft 416 kts 204°
2026-04-23 11:22 50.05626 -2.04991 18430 ft 412 kts 204°
2026-04-23 11:22 50.03067 -2.06948 17985 ft 407 kts 203°
2026-04-23 11:22 50.00546 -2.08896 17420 ft 403 kts 206°
2026-04-23 11:22 49.98236 -2.11240 16876 ft 402 kts 216°
2026-04-23 11:23 49.96204 -2.14195 16321 ft 400 kts 226°
2026-04-23 11:23 49.94345 -2.17466 15741 ft 397 kts 226°
2026-04-23 11:23 49.92541 -2.20630 15165 ft 394 kts 226°
2026-04-23 11:23 49.90728 -2.23801 14564 ft 392 kts 226°
2026-04-23 11:24 49.88918 -2.26960 13962 ft 390 kts 225°
2026-04-23 11:24 49.87119 -2.30096 13342 ft 387 kts 225°
2026-04-23 11:24 49.85338 -2.33198 12749 ft 383 kts 225°
2026-04-23 11:24 49.83573 -2.36272 12160 ft 380 kts 225°
2026-04-23 11:25 49.81823 -2.39315 11571 ft 377 kts 224°
2026-04-23 11:25 49.80088 -2.42324 11088 ft 371 kts 224°
2026-04-23 11:25 49.78409 -2.45240 10961 ft 355 kts 224°
2026-04-23 11:25 49.76796 -2.48041 10839 ft 341 kts 224°
2026-04-23 11:26 49.75242 -2.50729 10708 ft 329 kts 224°
2026-04-23 11:26 49.73742 -2.53318 10593 ft 318 kts 224°
2026-04-23 11:26 49.72289 -2.55822 10452 ft 309 kts 223°
2026-04-23 11:26 49.70869 -2.58265 10306 ft 302 kts 223°
2026-04-23 11:27 49.69385 -2.60537 9780 ft 300 kts 217°
2026-04-23 11:27 49.67839 -2.62682 9177 ft 296 kts 217°
2026-04-23 11:27 49.66311 -2.64792 8625 ft 292 kts 217°
2026-04-23 11:27 49.64809 -2.66866 8090 ft 288 kts 217°
2026-04-23 11:28 49.63327 -2.68908 7544 ft 284 kts 216°
2026-04-23 11:28 49.61865 -2.70925 7041 ft 280 kts 216°
2026-04-23 11:28 49.60420 -2.72919 6505 ft 277 kts 216°
2026-04-23 11:28 49.59024 -2.74848 5899 ft 269 kts 215°
2026-04-23 11:29 49.57647 -2.76751 5369 ft 266 kts 215°
2026-04-23 11:29 49.56255 -2.78661 4761 ft 266 kts 215°
2026-04-23 11:29 49.54956 -2.80460 4667 ft 237 kts 214°
2026-04-23 11:29 49.53778 -2.82098 4621 ft 218 kts 213°
2026-04-23 11:30 49.52680 -2.83615 4544 ft 209 kts 212°
2026-04-23 11:30 49.51600 -2.85093 4458 ft 207 kts 212°
2026-04-23 11:30 49.50526 -2.86561 4371 ft 206 kts 212°
2026-04-23 11:30 49.49455 -2.88024 4279 ft 206 kts 212°
2026-04-23 11:31 49.48383 -2.89491 4189 ft 207 kts 213°
2026-04-23 11:31 49.47305 -2.90953 4054 ft 207 kts 212°
2026-04-23 11:31 49.46202 -2.92342 3827 ft 199 kts 202°
2026-04-23 11:31 49.44976 -2.92699 3662 ft 168 kts 155°
2026-04-23 11:32 49.44228 -2.91603 3522 ft 149 kts 111°
2026-04-23 11:32 49.43988 -2.90060 3379 ft 149 kts 104°
2026-04-23 11:32 49.43815 -2.88519 3236 ft 142 kts 104°
2026-04-23 11:32 49.43648 -2.87043 3103 ft 139 kts 104°
2026-04-23 11:33 49.43475 -2.85586 2977 ft 138 kts 104°
2026-04-23 11:33 49.43297 -2.84142 2845 ft 137 kts 104°
2026-04-23 11:33 49.43117 -2.82707 2721 ft 137 kts 104°
2026-04-23 11:33 49.42986 -2.81258 2581 ft 138 kts 97°
2026-04-23 11:34 49.42980 -2.79786 2452 ft 138 kts 95°
2026-04-23 11:34 49.42999 -2.78316 2394 ft 138 kts 94°
2026-04-23 11:34 49.43031 -2.76874 2299 ft 132 kts 94°
2026-04-23 11:34 49.43065 -2.75472 2132 ft 130 kts 94°
2026-04-23 11:35 49.43101 -2.74089 1985 ft 129 kts 94°
2026-04-23 11:35 49.43138 -2.72714 1814 ft 129 kts 93°
2026-04-23 11:35 49.43175 -2.71358 1619 ft 128 kts 92°
2026-04-23 11:35 49.43213 -2.69988 1435 ft 129 kts 91°
2026-04-23 11:36 49.43250 -2.68624 1252 ft 127 kts 90°
2026-04-23 11:36 49.43294 -2.67253 1088 ft 130 kts 89°
2026-04-23 11:36 49.43332 -2.65868 925 ft 130 kts 88°
2026-04-23 11:36 49.43371 -2.64495 722 ft 128 kts 88°
2026-04-23 11:37 49.43417 -2.63118 559 ft 128 kts 88°
2026-04-23 11:37 49.43449 -2.61760 406 ft 128 kts 88°
2026-04-23 11:37 49.43491 -2.60432 316 ft 112 kts 88°
2026-04-23 11:37 49.43511 -2.59684 326 ft 26 kts 87°
2026-04-23 11:38 49.43518 -2.59506 330 ft 15 kts 86°
2026-04-23 11:38 49.43525 -2.59348 333 ft 15 kts 85°
2026-04-23 11:38 49.43497 -2.59210 333 ft 15 kts 153°
2026-04-23 11:38 49.43392 -2.59196 331 ft 11 kts 186°
2026-04-23 11:39 49.43370 -2.59308 331 ft 14 kts 269°
2026-04-23 11:39 49.43355 -2.59398 327 ft 3 kts 192°
2026-04-23 11:39 49.43327 -2.59404 329 ft 5 kts 183°
2026-04-23 11:39 49.43301 -2.59403 330 ft 0 kts 177°